CW9703 Weather Reports


Display with metric or nautical units.
time (UTC)temp
F
wind
direction
speed
MPH
gust
MPH
rain 1hr
in
rain 24hr
in
rain mn
in
humidity
%
barometer
mb
20170721123424 68 251 3.0 3.0 0.00 0.00 0.00 87 1014.6
20170721121224 68 251 2.0 3.0 0.00 0.00 0.00 88 1014.8
20170721115024 68 252 1.0 3.0 0.00 0.00 0.00 89 1014.9
20170721110624 67 315 0.0 1.0 0.00 0.00 0.00 89 1014.2
20170721104423 67 315 0.0 2.0 0.00 0.00 0.00 90 1014.2
20170721102223 67 347 0.0 1.0 0.00 0.00 0.00 90 1013.8
20170721100022 66 13 0.0 2.0 0.00 0.00 0.00 91 1013.6
20170721081021 67 5 0.0 0.0 0.00 0.00 0.00 89 1012.4
20170721074821 67 5 0.0 0.0 0.00 0.00 0.00 88 1012.6
20170721072621 68 360 0.0 0.0 0.00 0.00 0.00 88 1012.5
20170721070420 68 355 0.0 2.0 0.00 0.00 0.00 88 1012.6
20170721055819 68 11 0.0 0.0 0.00 0.00 0.00 89 1012.6
20170721051419 68 15 0.0 1.0 0.00 0.00 0.00 90 1012.2
20170721043018 70 61 0.0 0.0 0.00 0.00 0.00 94 1012.1
20170721034618 71 64 0.0 0.0 0.00 0.00 0.00 94 1011.8
20170721032417 71 64 0.0 0.0 0.00 0.00 0.00 93 1011.8
20170721030217 72 64 0.0 0.0 0.00 0.00 0.00 92 1011.8
20170721021816 73 65 0.0 2.0 0.00 0.00 0.00 90 1011.7
20170721015616 74 90 0.0 1.0 0.00 0.00 0.00 89 1011.4
20170721013416 75 90 0.0 0.0 0.00 0.00 0.00 87 1011.2
20170721002815 76 90 0.0 1.0 0.00 0.00 0.00 87 1011.0
20170721000615 76 90 2.0 2.0 0.00 0.00 0.00 86 1010.8
20170720234414 77 90 1.0 3.0 0.00 0.00 0.00 84 1010.9
20170720232214 76 99 1.0 3.0 0.00 0.00 0.00 85 1010.8
20170720223813 76 86 1.0 5.0 0.00 0.00 0.00 84 1010.7
20170720221613 76 93 2.0 5.0 0.00 0.00 0.00 84 1010.8
20170720213212 75 87 5.0 6.0 0.00 0.00 0.00 89 1010.9
20170720204812 74 101 6.0 7.0 0.00 0.00 0.00 89 1011.3
20170720202612 74 121 6.0 6.0 0.00 0.00 0.00 90 1011.4
20170720200411 74 130 7.0 8.0 0.00 0.00 0.00 90 1011.5
20170720185811 74 133 6.0 7.0 0.00 0.00 0.00 89 1011.6
20170720181410 73 116 4.0 6.0 0.00 0.00 0.00 89 1011.8
20170720170809 71 120 9.0 10.0 0.00 0.00 0.00 90 1012.2
20170720164609 82 314 0.0 10.0 0.00 0.00 0.00 67 1012.0
20170720162409 82 20 0.0 3.0 0.00 0.00 0.00 70 1011.7
20170720160208 81 332 1.0 4.0 0.00 0.00 0.00 70 1011.8
20170720154008 80 328 3.0 8.0 0.00 0.00 0.00 71 1012.0
20170720151808 80 334 0.0 14.0 0.00 0.00 0.00 72 1012.1
20170720145607 79 291 4.0 11.0 0.00 0.00 0.00 72 1012.0
20170720143407 78 294 6.0 10.0 0.00 0.00 0.00 75 1011.8
20170720132806 76 294 6.0 9.0 0.00 0.00 0.00 81 1012.2
20170720130606 74 279 5.0 11.0 0.00 0.00 0.00 85 1012.1
20170720124405 72 263 8.0 10.0 0.00 0.00 0.00 91 1012.0